Location: Bemmer
(51.5498°N, 5.6249°E)
Time: 16:58:51
(UTC+00:00)

NOSS 3-3 (A) - Pass Details

Date: 03 March 2021
Orbit: 815 x 1397 km, 63.4° (Epoch: 13 April)

Event Time Altitude Azimuth Distance (km) Brightness Sun altitude
Rises 20:06:46 0° 314° (NW) 3,900 8.3 -25.9°
Reaches altitude 10° 20:09:17 10° 314° (NW) 3,020 7.5 -26.3°
Maximum altitude 20:16:39 88° 229° (SW) 1,255 4.4 -27.3°
Enters shadow 20:18:42 55° 140° (SE) 1,500 4.5 -27.6°
